TimeMDT,TemperatureF,Dew PointF,Humidity,Sea Level PressureIn,VisibilityMPH,Wind Direction,Wind SpeedMPH,Gust SpeedMPH,PrecipitationIn,Events,Conditions,WindDirDegrees,DateUTC
12:53 AM,54.0,26.1,34,29.72,10.0,WSW,11.5,-,N/A,,Clear,240,2012-10-03 06:53:00
1:53 AM,59.0,23.0,25,29.70,10.0,WSW,16.1,-,N/A,,Clear,250,2012-10-03 07:53:00
2:53 AM,57.0,23.0,27,29.70,10.0,WSW,12.7,-,N/A,,Clear,250,2012-10-03 08:53:00
3:53 AM,55.0,24.1,30,29.71,10.0,WSW,13.8,-,N/A,,Clear,240,2012-10-03 09:53:00
4:53 AM,54.0,24.1,31,29.72,10.0,WSW,13.8,-,N/A,,Clear,250,2012-10-03 10:53:00
5:53 AM,52.0,25.0,35,29.73,10.0,WSW,11.5,-,N/A,,Clear,250,2012-10-03 11:53:00
6:53 AM,51.1,27.0,39,29.76,10.0,West,12.7,-,N/A,,Clear,260,2012-10-03 12:53:00
7:53 AM,54.0,28.9,38,29.78,10.0,West,8.1,-,N/A,,Clear,260,2012-10-03 13:53:00
9:53 AM,69.1,24.1,18,29.73,10.0,WSW,19.6,34.5,N/A,,Clear,250,2012-10-03 15:53:00
10:53 AM,72.0,21.9,15,29.71,10.0,West,20.7,28.8,N/A,,Clear,280,2012-10-03 16:53:00
11:53 AM,73.9,17.1,12,29.70,10.0,West,29.9,42.6,N/A,,Clear,270,2012-10-03 17:53:00
12:53 PM,75.0,15.1,10,29.69,10.0,West,26.5,29.9,N/A,,Clear,280,2012-10-03 18:53:00
1:53 PM,75.0,6.1,7,29.68,10.0,WNW,17.3,29.9,N/A,,Clear,290,2012-10-03 19:53:00
2:35 PM,64.4,30.2,28,29.94,10.0,North,26.5,38.0,N/A,,Clear,10,2012-10-03 20:35:00
2:53 PM,57.2,30.2,36,29.96,10.0,NNE,23.0,33.4,N/A,,Clear,20,2012-10-03 20:53:00
3:53 PM,52.0,32.0,47,29.85,10.0,NNE,23.0,39.1,0.00,,Clear,20,2012-10-03 21:53:00
4:53 PM,45.0,30.0,56,29.93,10.0,North,26.5,42.6,N/A,,Clear,10,2012-10-03 22:53:00
5:53 PM,39.9,30.0,68,30.02,10.0,North,26.5,46.0,N/A,,Scattered Clouds,360,2012-10-03 23:53:00
6:04 PM,39.2,30.2,70,30.13,10.0,North,32.2,44.9,N/A,,Mostly Cloudy,360,2012-10-04 00:04:00
6:53 PM,36.0,27.0,70,30.11,10.0,North,32.2,49.5,N/A,,Overcast,360,2012-10-04 00:53:00
7:16 PM,35.6,24.8,65,30.18,10.0,North,33.4,47.2,N/A,,Scattered Clouds,360,2012-10-04 01:16:00
7:53 PM,34.0,24.1,67,30.15,10.0,North,24.2,43.7,N/A,,Clear,360,2012-10-04 01:53:00
8:53 PM,32.0,24.1,73,30.16,10.0,North,21.9,33.4,N/A,,Clear,360,2012-10-04 02:53:00
9:53 PM,30.9,23.0,72,30.19,10.0,North,24.2,34.5,N/A,,Clear,350,2012-10-04 03:53:00
10:53 PM,30.9,23.0,72,30.22,10.0,North,10.4,20.7,N/A,,Clear,360,2012-10-04 04:53:00
11:53 PM,30.0,23.0,75,30.23,10.0,NNW,11.5,-,N/A,,Partly Cloudy,340,2012-10-04 05:53:00